GEFSMA_850_meantemp_132.txt.gz
Temperature
11 11 10 10 10 10 10 9 9 9 9 8 8 8 8 8 8 8 8 8 8 7 7 7 6 6 6 6 6 6 6 6 6 6 6 6 6 6 6 6 6 6 6
11 10 10 10 10 10 9 9 9 9 8 8 8 8 8 8 8 8 8 8 8 8 7 7 7 6 6 6 6 6 6 6 6 6 6 5 5 5 5 5 5 5 5
10 10 10 10 10 9 9 9 9 8 8 8 8 8 8 8 8 8 8 8 8 8 8 7 7 7 6 6 6 6 6 5 5 5 5 5 5 5 5 5 5 4 5
10 10 10 9 9 9 9 9 9 8 8 8 8 8 8 8 8 8 8 8 8 7 7 7 7 7 7 6 6 5 5 5 5 5 5 5 4 4 4 4 4 4 4
10 10 10 9 9 9 9 9 8 8 8 8 8 8 8 8 8 8 8 8 7 7 7 7 7 7 7 7 6 6 5 5 5 5 4 4 4 4 4 4 3 4 4
10 10 10 9 9 9 9 9 8 8 8 8 8 8 8 8 8 8 8 7 7 7 7 7 7 7 7 7 7 6 6 5 5 4 4 4 4 3 3 3 3 3 3
10 10 10 9 9 9 9 9 8 8 8 8 8 8 8 8 8 8 8 7 7 7 7 7 7 7 7 7 6 6 6 5 4 4 3 3 3 3 3 3 3 3 2
10 10 10 9 9 9 9 9 8 8 8 8 8 8 8 8 8 8 8 7 7 7 7 7 7 7 6 6 6 6 6 5 4 3 3 3 3 2 2 2 2 2 2
11 10 10 9 9 9 9 9 8 8 8 8 8 8 8 8 8 8 8 7 7 7 7 7 6 6 6 6 6 5 5 5 4 3 3 3 2 2 2 2 2 2 2
11 10 10 10 9 9 9 9 9 8 8 8 8 8 8 8 8 8 8 7 7 7 7 7 6 6 6 6 5 5 5 5 4 3 3 2 2 2 2 1 1 1 1
11 10 10 10 9 9 9 9 9 8 8 8 8 8 8 8 8 7 8 8 7 7 7 7 6 6 6 5 5 5 4 4 4 3 3 3 2 2 1 1 1 1 1
11 10 10 10 10 9 9 9 9 8 8 8 8 8 8 8 8 7 7 7 7 7 7 7 6 6 5 5 4 4 4 4 3 3 3 3 2 2 1 0 0 -0 -0
11 11 10 10 10 9 9 9 9 9 8 8 8 8 8 8 8 7 7 7 7 7 7 7 6 6 5 4 4 4 3 3 3 3 2 2 2 1 1 0 -0 -1 -1
12 12 11 10 10 10 9 9 9 9 8 8 8 8 8 8 7 7 7 7 6 6 6 6 6 5 5 4 4 3 3 3 2 2 2 1 1 1 0 -0 -1 -1 -1
12 11 11 10 10 9 9 9 9 9 8 8 8 8 8 8 7 7 7 6 6 5 6 6 5 5 4 3 3 3 2 2 2 2 1 1 0 0 -0 -1 -1 -2 -2
12 11 11 10 10 9 9 9 9 9 8 8 8 8 8 7 7 7 7 6 6 5 5 5 5 4 3 3 2 2 2 2 1 1 1 0 -0 -1 -1 -2 -2 -2 -3
11 11 11 10 10 9 9 9 9 9 8 8 8 8 8 7 7 7 6 6 6 5 5 5 4 4 3 3 2 2 1 1 1 0 0 -0 -1 -1 -2 -2 -2 -3 -3
11 11 10 10 10 9 9 9 9 9 8 8 8 8 8 7 7 7 6 6 5 5 4 4 4 3 3 2 2 1 1 1 0 0 -0 -1 -1 -2 -2 -3 -3 -3 -4
11 10 10 10 10 9 9 9 9 9 8 8 8 8 7 7 7 6 6 5 5 4 4 3 3 3 2 2 1 1 1 0 -0 -1 -1 -1 -2 -2 -3 -3 -4 -4 -4
10 10 10 10 9 9 9 9 9 8 8 8 8 7 7 7 7 6 6 5 4 4 3 3 3 2 2 1 1 0 0 -0 -1 -1 -1 -2 -2 -3 -3 -4 -4 -4 -5
10 10 10 9 9 9 9 9 8 8 8 8 7 7 7 7 6 6 5 4 4 3 3 2 2 1 1 1 -0 -1 -1 -1 -1 -2 -2 -2 -3 -3 -4 -4 -4 -5 -5
10 9 9 9 9 9 9 8 8 8 8 7 7 7 7 6 6 5 4 4 3 3 2 2 1 1 0 -0 -1 -1 -2 -2 -3 -3 -3 -3 -4 -4 -4 -5 -5 -5 -6
9 9 9 9 9 9 8 8 8 8 7 7 7 7 6 6 5 4 4 3 3 2 2 1 0 0 -0 -1 -2 -2 -3 -3 -3 -4 -4 -4 -4 -4 -5 -5 -5 -6 -6
9 9 9 8 8 8 8 8 8 7 7 7 6 6 6 5 5 4 3 3 2 2 1 1 0 -0 -1 -2 -2 -3 -3 -3 -4 -4 -5 -5 -5 -5 -5 -5 -6 -6 -7
9 9 8 8 8 8 8 7 7 7 7 6 6 5 5 5 4 3 3 2 2 1 1 -0 -1 -1 -2 -2 -3 -3 -4 -4 -4 -5 -5 -6 -6 -6 -6 -6 -6 -6 -7
8 8 8 8 8 7 7 7 7 6 6 6 5 5 5 4 3 3 2 2 1 1 -0 -1 -1 -2 -2 -3 -3 -4 -4 -5 -5 -6 -6 -7 -7 -8 -8 -7 -6 -7 -7

GEFSMA_850_meantemp_138.txt.gz
Temperature
11 11 10 10 10 10 10 9 9 9 9 8 8 8 8 8 8 8 8 8 8 8 7 7 7 7 7 7 7 7 7 7 6 6 6 6 6 6 6 6 6 6 6
11 11 10 10 10 10 9 9 9 9 8 8 8 8 8 8 8 8 8 8 8 8 8 7 7 7 7 6 6 7 6 6 6 6 6 6 6 5 5 5 5 5 5
11 11 10 10 10 10 9 9 8 8 8 8 8 8 8 8 8 8 8 8 8 8 8 8 7 7 7 7 6 6 6 6 6 6 5 5 5 5 5 5 5 5 5
11 10 10 10 10 10 9 9 9 8 8 8 8 8 8 8 8 8 8 8 7 7 8 8 8 7 7 7 7 6 6 6 6 5 5 5 5 5 4 4 4 4 4
11 10 10 10 10 9 9 9 9 8 8 8 8 8 8 8 8 8 8 8 8 8 7 8 8 8 7 7 7 7 6 6 5 5 5 5 5 4 4 4 4 4 4
11 10 10 10 9 9 9 9 8 8 8 8 8 8 8 8 8 8 8 8 8 8 7 7 7 7 8 7 7 7 6 6 5 5 5 5 4 4 4 4 4 4 4
11 10 10 10 9 9 9 9 8 8 8 8 8 8 8 8 8 8 8 7 8 8 8 7 7 7 7 7 7 7 7 6 5 5 4 4 4 4 4 3 3 3 3
11 10 10 10 10 9 9 9 8 8 8 8 8 8 8 7 8 8 8 8 7 8 8 7 7 7 7 7 7 7 7 6 6 5 4 4 4 3 3 3 3 3 3
11 11 10 10 10 9 9 9 9 8 8 8 8 8 8 9 8 8 8 8 8 8 7 7 7 7 7 7 7 7 6 6 6 5 4 4 4 3 3 3 3 3 3
11 11 10 10 9 9 9 9 9 9 8 8 8 8 8 8 8 8 8 8 8 8 7 8 7 7 7 7 7 6 6 6 6 5 5 4 4 3 3 3 2 2 2
12 11 10 10 10 9 9 9 9 9 8 8 8 8 8 8 8 7 8 7 8 8 8 8 7 7 7 7 6 6 6 6 5 5 5 4 4 3 3 2 2 2 2
12 11 11 10 10 10 9 9 9 9 9 8 8 8 8 8 8 8 7 7 7 8 8 8 7 7 7 6 6 6 6 5 5 5 4 4 4 3 3 2 2 2 1
12 12 11 10 10 10 10 9 9 9 9 9 8 8 8 8 8 8 7 7 7 7 8 8 7 7 7 6 6 6 5 5 5 4 4 4 3 3 3 2 2 1 1
13 13 12 11 10 10 10 9 9 9 9 9 8 8 8 8 8 8 8 7 7 7 7 7 7 7 7 6 6 5 5 4 4 4 3 3 3 2 2 2 1 1 0
12 12 12 11 10 10 10 9 9 9 9 9 8 8 8 8 8 8 8 7 7 6 6 6 7 7 6 6 5 5 4 4 4 3 3 3 2 2 1 1 1 0 -0
12 11 11 11 10 10 10 9 9 9 9 9 8 8 8 8 8 8 8 7 7 6 6 6 6 6 6 5 5 4 4 3 3 3 2 2 2 1 1 0 0 -0 -1
11 11 11 11 10 10 10 9 9 9 9 9 8 8 8 8 8 8 8 7 7 7 6 6 5 5 5 5 4 4 3 3 2 2 2 1 1 1 0 -0 -1 -1 -2
11 11 10 10 10 10 10 9 9 9 9 9 9 8 8 8 8 8 7 7 7 6 6 5 5 5 4 4 3 3 3 2 2 2 1 1 1 0 -0 -1 -1 -2 -2
11 10 10 10 10 10 10 9 9 9 9 9 9 9 8 8 8 8 7 7 7 6 6 5 4 4 4 4 3 3 2 2 1 1 1 0 0 -0 -1 -1 -2 -2 -3
11 10 10 10 10 10 9 9 9 9 9 9 9 8 8 8 8 7 7 7 6 6 5 5 4 4 3 3 2 2 2 1 1 0 0 -0 -1 -1 -1 -2 -2 -3 -3
10 10 10 10 10 10 9 9 9 9 9 9 8 8 8 8 8 7 7 6 6 5 5 4 4 3 3 2 2 1 1 0 -0 -0 -1 -1 -1 -2 -2 -3 -3 -3 -4
10 10 10 10 9 9 9 9 9 9 9 8 8 8 8 8 7 7 6 6 5 5 4 4 3 3 2 2 1 1 0 -1 -1 -1 -2 -2 -2 -3 -3 -3 -4 -4 -5
10 10 10 9 9 9 9 9 9 8 8 8 8 8 8 7 7 6 6 5 5 4 4 3 3 2 2 1 0 -0 -1 -1 -2 -2 -3 -3 -3 -4 -4 -4 -4 -5 -5
10 9 9 9 9 9 9 9 8 8 8 8 7 7 7 7 6 6 6 5 5 4 4 3 2 2 1 0 -0 -1 -1 -2 -2 -3 -3 -4 -4 -4 -4 -5 -5 -5 -6
9 9 9 9 9 9 9 8 8 8 8 7 7 7 6 6 6 6 5 5 4 4 3 2 2 1 0 -0 -1 -1 -2 -3 -3 -4 -4 -5 -5 -5 -5 -5 -6 -6 -6
9 9 9 9 8 8 8 8 8 7 7 7 7 6 6 6 5 5 5 4 3 3 2 2 1 0 -0 -1 -1 -2 -3 -3 -4 -5 -5 -6 -6 -7 -7 -6 -6 -7 -7

GEFSMA_850_meantemp_144.txt.gz
Temperature
11 11 11 11 11 10 10 10 10 10 10 9 9 9 9 9 9 9 9 9 9 9 8 8 8 8 8 8 8 8 8 7 7 7 7 7 7 6 6 6 6 6 6
11 11 11 11 10 10 10 10 10 10 9 9 9 9 9 9 9 9 9 9 9 9 9 8 8 8 8 8 8 8 8 8 7 7 7 7 6 6 6 6 6 6 6
11 11 11 11 10 10 10 10 10 9 9 9 9 9 9 9 8 8 9 9 9 9 9 8 8 8 8 8 8 8 8 7 7 7 7 6 6 6 6 6 5 5 5
11 11 11 11 11 10 10 10 10 9 9 9 9 9 9 8 8 8 8 8 9 9 9 9 9 9 9 8 8 8 8 8 7 7 7 6 6 6 6 5 5 5 5
11 11 11 11 11 10 10 10 10 9 9 9 9 9 8 8 8 8 8 8 8 9 9 9 9 9 9 9 8 8 8 8 7 7 7 6 6 6 5 5 5 5 5
11 11 11 11 11 10 10 10 10 9 9 9 8 8 8 8 8 8 8 8 9 9 9 9 9 9 9 9 8 8 8 8 7 7 7 6 6 6 5 5 5 4 4
12 12 11 11 11 11 10 10 10 9 9 9 8 8 8 8 8 8 8 9 9 9 9 9 9 9 9 9 9 8 8 8 7 7 7 6 6 6 5 5 5 4 4
12 12 12 11 11 11 10 10 10 9 9 9 9 8 8 8 8 8 8 8 9 9 9 9 9 9 9 9 8 8 8 8 7 7 6 6 6 5 5 5 4 4 4
12 12 12 11 11 11 11 10 10 10 9 9 9 9 8 8 9 8 9 9 8 9 9 9 9 9 9 9 8 8 8 7 7 7 6 6 6 5 5 4 4 4 4
12 12 12 11 11 11 11 10 10 10 9 9 9 9 9 9 9 8 8 9 8 8 9 9 9 9 8 8 8 8 8 7 7 6 6 6 5 5 4 4 4 4 3
12 12 12 11 11 11 11 10 10 10 9 9 9 9 9 9 9 9 8 8 8 9 9 9 9 9 8 8 8 8 7 7 7 6 6 6 5 5 4 4 4 3 3
12 12 12 11 11 11 11 10 10 10 9 9 9 9 9 9 9 9 8 9 9 9 8 8 8 8 8 8 8 8 7 7 6 6 6 5 5 5 4 4 3 3 3
13 14 13 12 11 11 11 10 10 10 10 9 9 9 9 9 9 9 9 8 8 8 8 8 8 8 8 8 8 7 7 7 6 6 5 5 5 4 4 3 3 3 2
15 15 13 12 12 11 10 10 10 10 9 9 9 9 9 9 9 8 8 8 8 8 8 8 8 8 8 8 7 7 7 6 6 5 5 4 4 4 3 3 3 2 2
14 14 13 13 12 11 10 10 10 9 9 9 9 9 9 8 8 8 8 8 8 8 8 8 8 8 7 7 7 6 6 6 5 5 4 4 3 3 3 2 2 2 1
13 13 13 12 11 11 10 10 10 9 9 9 9 9 8 8 8 8 8 8 8 8 7 7 7 7 7 7 6 6 6 5 5 4 4 3 3 3 2 2 1 1 1
12 12 12 12 11 10 10 10 10 9 9 9 9 9 9 8 8 8 8 8 8 7 7 7 7 7 7 6 6 5 5 5 4 4 3 3 2 2 2 1 1 0 -0
12 12 11 11 11 10 10 10 10 9 9 9 9 9 9 8 8 8 8 8 8 7 7 7 7 6 6 6 5 5 4 4 4 3 3 2 2 1 1 1 0 -0 -1
11 11 11 11 11 10 10 10 10 9 9 9 9 9 9 8 8 8 8 8 8 7 7 6 6 6 5 5 5 4 4 4 3 3 2 2 1 1 0 -0 -1 -1 -2
11 11 11 11 10 10 10 10 9 9 9 9 9 9 9 8 8 8 8 8 7 7 7 6 6 5 5 5 4 4 4 3 3 2 2 1 0 0 -0 -1 -2 -2 -2
11 11 10 10 10 10 10 9 9 9 9 9 9 8 8 8 8 8 8 7 7 7 6 6 5 5 4 4 4 3 3 2 2 2 1 1 -0 -0 -1 -1 -2 -3 -3
11 11 10 10 10 10 9 9 9 9 9 9 8 8 8 8 8 8 7 7 7 6 6 5 5 4 4 3 3 2 2 1 1 1 0 -0 -1 -1 -1 -2 -3 -3 -4
11 10 10 10 10 10 9 9 9 9 9 8 8 8 8 8 8 7 7 7 6 6 5 5 4 4 3 3 2 2 1 1 0 0 -1 -1 -1 -1 -2 -3 -3 -4 -4
11 10 10 10 10 10 9 9 9 9 8 8 8 8 8 8 7 7 7 6 6 5 5 4 4 3 3 2 1 1 0 0 -0 -0 -1 -2 -2 -2 -2 -3 -3 -4 -5
10 10 10 10 10 10 9 9 9 8 8 8 8 8 8 7 7 7 6 6 5 5 4 4 3 3 2 1 1 0 0 -1 -1 -1 -2 -3 -3 -3 -3 -3 -4 -4 -5
10 10 10 10 9 9 9 9 8 8 8 8 8 7 7 7 7 6 6 5 5 5 4 3 3 2 2 1 1 -0 -1 -1 -2 -3 -3 -4 -4 -5 -5 -4 -4 -5 -5

GEFSMA_850_meantemp_150.txt.gz
Temperature
13 12 12 12 12 12 12 11 11 11 11 10 10 10 10 10 10 10 10 10 9 9 9 8 8 8 8 9 9 9 9 9 8 8 8 8 8 7 7 7 7 6 6
13 12 12 12 12 12 11 11 11 10 10 10 10 10 10 10 10 10 10 9 9 9 9 8 8 8 8 8 9 9 9 9 8 8 8 8 7 7 7 7 6 6 6
12 12 12 12 12 11 11 11 10 10 10 10 10 10 10 10 10 10 10 9 9 9 9 9 9 8 8 8 9 9 9 9 8 8 8 8 8 7 7 7 6 6 6
12 12 12 12 12 11 11 11 10 10 10 10 9 9 9 9 9 9 9 9 9 9 9 9 9 9 9 9 9 9 9 9 8 8 8 8 8 7 7 6 6 6 6
12 12 12 12 11 11 11 10 10 10 10 10 9 9 9 9 9 9 9 9 9 9 9 9 9 9 9 9 9 9 9 9 8 8 8 8 7 7 7 6 6 6 5
12 12 12 12 11 11 11 10 10 10 10 9 9 9 9 9 9 9 9 9 9 9 9 9 9 9 9 9 9 9 8 8 8 8 8 7 7 7 6 6 6 6 5
12 12 12 11 11 11 11 11 10 10 9 9 9 8 8 8 9 9 9 9 9 9 9 9 9 9 9 9 9 9 8 8 8 8 7 7 7 6 6 6 6 5 5
12 12 12 12 11 11 11 10 10 10 9 9 9 8 8 8 9 9 9 9 9 9 9 9 9 9 9 9 9 9 8 8 8 7 7 7 6 6 6 5 5 5 5
12 12 12 12 12 11 11 11 10 10 10 9 9 9 9 9 9 9 9 9 9 9 9 9 9 9 9 9 9 8 8 8 8 7 7 7 6 6 5 5 5 4 4
12 12 12 12 12 12 11 11 11 10 10 10 9 9 9 9 9 9 9 9 9 9 9 9 9 9 9 9 8 8 8 8 8 7 7 6 6 6 5 5 4 4 4
12 12 12 12 12 12 11 11 11 10 10 10 10 9 9 9 9 9 9 10 9 10 9 9 9 9 9 9 8 8 8 8 7 7 7 6 6 5 5 5 4 4 3
12 12 12 12 12 12 12 11 11 10 10 10 10 10 9 9 9 9 9 10 10 9 9 9 9 9 9 8 8 8 8 7 7 7 6 6 6 5 5 4 4 3 3
13 14 13 13 12 12 12 11 11 10 10 10 10 10 9 9 9 9 9 9 9 9 9 9 9 9 8 8 8 8 7 7 7 6 6 5 5 5 4 4 3 3 2
15 15 14 13 13 12 12 11 11 10 10 10 10 10 9 9 9 9 8 8 8 8 8 9 9 9 8 8 8 7 7 7 6 6 5 5 5 4 4 3 3 2 2
15 14 14 13 13 12 12 11 11 10 10 10 10 9 9 9 9 8 8 8 8 7 8 8 8 8 8 8 7 7 7 6 6 5 5 5 4 4 3 3 2 2 1
14 14 13 13 13 12 12 11 11 10 10 10 10 9 9 9 9 8 8 8 8 7 7 8 8 8 7 7 7 7 6 6 5 5 5 4 3 3 3 2 2 1 1
14 13 13 13 12 12 11 11 11 10 10 10 9 9 9 9 9 8 8 8 8 7 7 7 7 7 7 7 7 6 6 5 5 5 4 3 3 2 2 1 1 1 0
13 13 13 12 12 12 11 11 11 10 10 10 9 9 9 9 8 8 8 8 8 7 7 7 7 7 7 6 6 6 5 5 4 4 3 3 2 2 1 1 1 0 -0
13 13 12 12 12 12 11 11 10 10 10 10 9 9 9 9 8 8 8 8 8 7 7 7 7 6 6 6 5 5 5 4 4 3 3 3 2 1 1 1 0 -0 -1
13 12 12 12 12 11 11 11 10 10 10 9 9 9 9 9 8 8 8 8 8 7 7 7 6 6 6 5 5 5 4 4 4 3 3 2 2 1 1 0 -0 -1 -2
12 12 12 12 11 11 11 11 10 10 10 9 9 9 9 9 8 8 8 8 7 7 7 6 6 6 5 5 5 4 4 3 3 2 2 2 1 1 0 -0 -1 -2 -2
12 12 12 11 11 11 11 11 10 10 9 9 9 9 9 8 8 8 8 8 7 7 7 6 6 5 5 5 4 4 3 2 2 2 1 1 0 -0 -1 -1 -2 -2 -3
12 12 12 11 11 11 11 10 10 10 9 9 9 9 9 8 8 8 7 7 7 7 6 6 5 5 5 4 4 3 2 2 1 1 0 0 -0 -0 -1 -2 -2 -3 -4
12 12 11 11 11 11 11 10 10 9 9 9 9 9 8 8 8 8 7 7 7 6 6 5 5 5 4 3 3 2 2 1 1 0 -0 -1 -1 -1 -2 -2 -3 -4 -4
11 11 11 11 11 11 10 10 9 9 9 9 9 8 8 8 8 7 7 7 6 6 5 5 4 4 3 3 2 2 1 1 0 -0 -1 -2 -2 -2 -2 -2 -3 -4 -5
11 11 11 11 11 10 10 10 9 9 9 9 8 8 8 8 7 7 7 6 6 5 5 4 4 3 3 2 2 1 1 -0 -1 -2 -2 -3 -3 -4 -4 -3 -4 -5 -5

GEFSMA_850_meantemp_156.txt.gz
Temperature
12 12 12 12 12 11 11 11 11 11 10 10 10 10 10 10 10 9 9 9 9 9 9 8 8 8 8 9 9 9 9 9 8 8 8 8 8 8 8 7 7 7 7
12 12 12 12 11 11 11 11 10 10 10 10 10 10 10 10 9 9 9 9 9 9 9 9 8 8 8 8 9 9 9 8 8 8 8 8 8 8 8 7 7 7 7
12 12 12 12 11 11 10 10 10 10 10 10 10 10 9 9 9 9 9 9 9 9 9 9 8 8 8 8 8 9 9 8 8 8 8 8 8 8 7 7 7 7 6
12 12 12 11 11 11 10 10 10 10 10 10 9 9 9 9 9 9 9 9 9 9 9 9 9 9 8 8 8 8 8 8 8 8 8 8 8 7 7 7 7 6 6
12 12 11 11 11 11 10 10 10 10 10 10 9 9 9 9 9 9 9 9 9 9 9 9 9 9 9 8 8 8 8 8 8 8 8 8 7 7 7 7 6 6 6
12 11 11 11 11 10 10 10 10 10 9 9 9 9 9 9 9 9 9 9 9 9 9 9 9 9 9 9 8 8 8 8 8 8 8 8 7 7 7 6 6 6 6
12 11 11 11 11 11 10 10 10 9 9 9 9 9 9 9 9 9 9 9 9 9 9 9 9 9 9 9 8 8 8 8 8 8 7 7 7 7 6 6 6 6 5
12 12 11 11 11 10 10 10 10 10 9 9 9 8 9 9 9 9 9 9 9 9 9 9 9 9 9 9 8 8 8 8 8 8 7 7 7 6 6 6 5 5 5
12 12 11 11 11 11 10 10 10 10 10 9 9 9 9 9 9 10 10 10 9 9 9 9 9 9 9 9 8 8 8 8 8 8 7 7 7 6 6 5 5 5 4
12 12 11 11 11 11 11 10 10 10 10 9 9 9 9 9 9 9 10 10 10 10 9 9 9 9 9 9 8 8 8 8 8 8 7 7 7 6 6 5 5 4 4
12 12 12 11 11 11 11 10 10 10 10 10 9 9 9 9 9 9 9 10 10 10 9 9 9 9 9 9 8 8 8 8 8 7 7 7 6 6 5 5 4 4 4
12 12 12 11 11 11 11 11 10 10 10 10 9 9 9 9 9 9 9 9 9 9 9 9 9 9 9 9 8 8 8 8 7 7 7 6 6 6 5 5 4 4 3
13 13 12 12 12 11 11 11 10 10 10 10 10 9 9 9 9 9 9 9 9 9 9 9 9 9 9 8 8 8 8 7 7 7 6 6 6 5 5 4 4 4 3
14 14 13 13 12 12 11 11 10 10 10 10 10 9 9 9 9 9 8 8 8 8 8 9 9 9 8 8 8 8 7 7 7 6 6 6 5 5 4 4 4 3 3
14 14 13 13 12 12 11 11 11 10 10 10 10 9 9 9 9 9 8 8 8 7 8 8 8 8 8 8 8 7 7 7 6 6 6 5 5 4 4 4 3 3 2
14 14 13 13 12 12 11 11 11 11 10 10 10 10 9 9 9 9 8 8 8 8 7 8 8 8 8 7 7 7 7 7 6 6 6 5 5 4 4 3 3 2 2
14 14 13 13 13 12 12 11 11 11 10 10 10 10 10 9 9 9 9 8 8 8 7 8 8 8 7 7 7 7 6 6 6 6 5 5 4 4 3 3 2 2 1
13 13 13 13 13 12 12 12 11 11 11 10 10 10 10 9 9 9 8 8 8 8 8 8 8 7 7 7 7 6 6 6 5 5 5 4 4 3 3 2 2 1 1
13 13 13 13 12 12 12 12 11 11 11 11 10 10 9 9 9 9 8 8 8 8 8 7 7 7 7 7 6 6 6 5 5 5 4 4 3 3 2 2 1 1 0
13 13 13 13 12 12 12 12 11 11 11 10 10 10 9 9 9 9 8 8 8 8 7 7 7 7 7 6 6 6 6 5 5 4 4 3 3 2 2 1 1 0 -1
13 13 12 12 12 12 12 12 11 11 11 10 10 10 10 9 9 9 8 8 8 8 7 7 7 7 6 6 6 5 5 5 5 4 3 3 2 2 1 1 0 -0 -1
12 12 12 12 12 12 12 11 11 11 10 10 10 10 10 9 9 8 8 8 8 7 7 7 7 6 6 6 5 5 4 4 4 3 3 3 2 2 1 0 -0 -1 -2
12 12 12 12 12 12 11 11 11 11 10 10 10 10 9 9 9 9 8 8 8 7 7 7 6 6 6 5 5 4 4 3 3 2 2 2 2 1 1 -0 -1 -1 -2
11 11 11 11 11 11 11 11 11 10 10 10 10 10 9 9 9 8 8 8 7 7 7 6 6 6 5 4 4 3 3 3 2 2 1 1 1 1 0 -0 -1 -2 -3
11 11 11 11 11 11 11 11 10 10 10 10 10 9 9 9 8 8 8 7 7 7 6 6 5 5 4 4 3 3 3 2 2 1 1 -0 -0 -0 -0 -1 -2 -2 -3
11 11 10 11 11 11 11 11 10 10 9 9 9 9 9 8 8 8 7 7 7 6 6 6 5 4 4 3 3 2 2 1 1 0 -0 -1 -1 -2 -2 -1 -2 -3 -3

GEFSMA_850_meantemp_162.txt.gz
Temperature
13 12 12 11 11 11 11 11 11 10 10 10 10 10 10 9 9 9 9 9 9 9 9 9 9 9 9 9 9 9 9 9 9 9 9 9 9 9 9 8 8 8 8
13 12 12 11 11 11 11 11 10 10 10 10 10 9 9 9 9 9 9 9 9 9 9 9 9 8 8 9 9 9 9 9 9 9 9 9 9 9 9 8 8 8 7
13 12 12 11 11 11 11 10 10 10 10 10 9 9 9 9 9 9 9 9 9 9 9 9 8 8 8 9 9 9 9 9 9 9 9 9 9 9 8 8 8 8 7
12 12 12 12 11 11 11 10 10 10 10 9 9 9 9 9 9 9 9 9 9 9 9 9 9 9 8 9 9 9 9 9 9 9 9 9 8 8 8 8 8 7 7
12 12 12 11 11 11 11 10 10 10 9 9 9 9 9 9 9 9 9 9 9 9 9 9 9 9 9 9 9 8 8 8 8 8 8 8 8 8 8 8 7 7 7
12 12 12 11 11 11 11 10 10 10 9 9 9 9 9 9 9 9 9 9 9 9 9 9 9 9 9 9 9 9 9 8 8 8 8 8 8 7 7 7 7 7 6
12 12 12 11 11 11 11 10 10 9 9 9 8 8 8 9 9 9 9 9 9 9 9 9 9 9 9 9 9 9 9 8 8 8 8 8 8 7 7 7 7 6 6
12 12 12 11 11 11 10 10 10 9 9 9 8 8 9 9 9 9 9 9 9 9 9 9 9 9 9 9 9 9 9 8 8 8 8 8 7 7 7 7 6 6 6
12 12 12 11 11 11 11 10 10 10 9 9 9 9 9 10 9 9 10 10 9 9 9 9 9 9 9 9 9 9 9 8 8 8 8 7 7 7 7 6 6 6 6
12 12 12 12 11 11 11 11 10 10 9 9 9 9 9 9 9 9 9 10 9 9 9 9 9 9 9 9 9 9 9 8 8 8 8 7 7 7 6 6 6 5 5
12 12 12 11 11 11 11 11 10 10 10 9 9 9 9 9 9 9 9 9 9 9 9 9 9 9 9 9 9 9 9 8 8 8 8 7 7 7 6 6 5 5 5
12 12 12 12 11 11 11 11 11 10 10 9 9 9 9 9 9 9 9 9 9 9 9 9 9 9 9 9 9 9 8 8 8 8 7 7 7 7 6 6 5 5 4
12 12 12 12 12 11 11 11 11 10 10 10 10 9 9 9 9 9 9 9 9 9 9 10 10 9 9 9 9 8 8 8 8 7 7 7 7 6 6 6 5 5 4
12 12 12 12 12 11 11 11 11 10 10 10 10 10 9 9 9 9 9 9 8 9 9 9 9 9 9 9 8 8 8 8 8 7 7 7 6 6 6 5 5 4 4
12 12 12 12 12 12 11 11 11 10 10 10 10 10 9 10 10 9 9 9 8 8 9 9 9 9 9 8 8 8 8 8 7 7 7 6 6 6 5 5 4 4 3
12 12 12 12 12 12 11 11 11 10 10 10 10 10 10 9 10 9 9 9 8 8 8 8 8 8 8 8 8 8 7 7 7 7 6 6 6 5 5 4 4 3 3
12 12 12 12 12 12 11 11 11 11 10 10 10 10 10 10 9 9 9 9 9 8 8 8 8 8 8 8 7 7 7 7 7 6 6 6 5 5 5 4 3 3 2
12 12 12 12 12 12 12 11 11 11 10 10 10 10 10 10 10 10 9 9 9 9 8 8 8 8 8 7 7 7 7 7 6 6 6 5 5 4 4 4 3 2 2
12 12 12 12 12 12 12 11 11 11 11 10 10 10 10 10 10 10 9 9 9 9 8 8 8 7 7 7 7 7 6 6 6 6 5 5 4 4 3 3 3 2 2
12 12 12 12 12 12 12 11 11 11 11 10 10 10 10 10 10 10 9 9 9 8 8 8 8 7 7 7 7 6 6 6 5 5 5 4 4 4 3 3 2 2 1
12 12 11 11 11 11 11 11 11 11 10 10 10 10 10 10 10 10 9 9 9 8 8 8 7 7 7 6 6 6 5 5 5 5 4 4 4 3 3 2 2 1 1
11 11 11 11 11 11 11 11 11 10 10 10 10 10 10 10 10 9 9 9 8 8 8 8 7 7 7 6 6 5 5 4 4 4 4 4 3 3 2 2 1 1 0
11 11 11 11 11 11 11 11 10 10 10 10 10 10 10 10 10 9 9 8 8 8 8 7 7 7 6 6 5 5 4 4 4 3 3 3 3 2 2 1 1 0 -0
11 11 11 11 11 11 11 11 10 10 10 10 10 10 10 10 9 9 9 9 8 8 7 7 7 6 6 5 5 4 4 3 3 3 2 2 2 2 2 1 1 -0 -1
10 10 10 10 11 11 11 11 10 10 9 9 9 9 9 9 9 9 9 8 8 8 7 7 6 6 5 5 4 4 3 3 2 2 2 1 1 1 1 1 0 -0 -1
10 10 10 10 10 10 10 10 10 10 9 9 9 9 9 9 9 9 8 8 8 8 7 7 6 5 5 4 4 3 3 2 2 1 1 1 0 -1 -1 -0 -0 -1 -2